Location: Evergreen Manor
(41.4083°N, 81.4939°W)
Time: 05:01:08
(UTC+00:00)

Okean 1-7 - Pass Details

Date: 11 December 2019
Orbit: 590 x 619 km, 82.5° (Epoch: 25 January)

Event Time Altitude Azimuth Distance (km) Brightness Sun altitude
Rises 00:04:02 0° 206° (SSW) 2,845 7.0 -23.1°
Reaches altitude 10° 00:06:21 10° 215° (SW) 1,951 6.2 -23.6°
Maximum altitude 00:10:22 37° 283° (WNW) 961 4.5 -24.3°
Enters shadow 00:14:23 10° 351° (N) 1,965 5.6 -25.1°
